weather.gov     
National Weather Service

Miscellaneous Local Product
NWS Homepage
This page is being discontinued on March 12, 2014.
The same data is available at this site. Please update your bookmarks.
Thank you, and we apologize for the inconvenience.
Please send an email to SR-SRH.Webmaster@noaa.gov with any concerns.


Current Version
Previous Version:    01  02  03  04  05  06  07  08  09  10  11  12  13  14  15  16  17  18  19  20  21  22  23  24  25  26  27  28  29  30  
   31  32  33  34  35  36  37  38  39  40  41  42  43  44  45  46  47  48  49  50  51  52  53  54  55  56  57  58  59  60  
[Printable]
121
AXUS43 KGID 182002
MISGRI

GID CWA HOURLY WEATHER ROUNDUP
NATIONAL WEATHER SERVICE HASTINGS NE
200 PM CST THU DEC 18 2014

NOTE: "FAIR" INDICATES FEW OR NO CLOUDS BELOW 12,000 FEET WITH NO
SIGNIFICANT WEATHER AND/OR OBSTRUCTIONS TO VISIBILITY.

...SOUTH CENTRAL NEBRASKA...

CITY           SKY/WX    TMP DP  RH WIND       PRES   REMARKS
GRAND ISLAND   CLOUDY    28  24  85 S5        30.15F WCI  23
HASTINGS       CLOUDY    29  24  82 SW5       30.13F WCI  24
KEARNEY        CLOUDY    28  25  86 S7        30.13S WCI  21
ORD            NOT AVBL
YORK           CLOUDY    28  25  86 S5        30.17S WCI  23
AURORA         CLOUDY    29  26  87 SW3       30.15F
LEXINGTON      CLOUDY    29  26  88 SW9       30.11F WCI  20
HOLDREGE       CLOUDY    29  26  88 SW5       30.12F WCI  24
HEBRON         CLOUDY    31  25  77 CALM      30.17F

...NEBRASKA PANHANDLE...

CITY           SKY/WX    TMP DP  RH WIND       PRES   REMARKS
CHADRON        SUNNY     34  24  67 W5        30.02F WCI  30
ALLIANCE       SUNNY     29  24  82 W6        30.01F WCI  23
SCOTTSBLUFF    SUNNY     20  16  84 NW5       30.03F FOG     WCI  13
SIDNEY         SUNNY     37  26  64 W6        30.02F WCI  32

...WESTERN AND NORTH CENTRAL NEBRASKA...

CITY           SKY/WX    TMP DP  RH WIND       PRES   REMARKS
VALENTINE      CLOUDY    27  23  85 SW7       30.05F WCI  19
AINSWORTH      CLOUDY    27  25  89 SW7       30.05F WCI  20
ONEILL         CLOUDY    28  26  93 S5        30.12S WCI  22
BROKEN BOW     CLOUDY    29  25  85 SW9       30.08F WCI  20
IMPERIAL       MOSUNNY   26  24  92 CALM      30.06F
NORTH PLATTE   CLOUDY    28  25  88 W6        30.08F FOG     WCI  22
MCCOOK         CLOUDY    28  25  88 SW5       30.10F WCI  23

...EASTERN NEBRASKA...

CITY           SKY/WX    TMP DP  RH WIND       PRES   REMARKS
NORFOLK        CLOUDY    29  23  78 SW7       30.15F WCI  22
SO SIOUX CITY  CLOUDY    30  22  72 CALM      30.21S
TEKAMAH        CLOUDY    30  25  81 S6        30.21S WCI  24
COLUMBUS       CLOUDY    28  21  74 SW5       30.18F WCI  23
ALBION         CLOUDY    28  22  81 SW6       30.15F WCI  21
OMAHA EPPLEY   FLURRIES  31  25  78 SE6       30.22F WCI  25
OFFUTT AFB     CLOUDY    32  27  80 SE6       30.20F WCI  26
MILLARD        CLOUDY    31  26  81 S3        30.21S
LINCOLN        CLOUDY    31  26  82 S5        30.20F WCI  26
NEBRASKA CITY  CLOUDY    30  27  89 SE5       30.20F WCI  25
BEATRICE       CLOUDY    31  27  85 CALM      30.18F
FALLS CITY     CLOUDY    30  26  85 E6        30.20F WCI  24

...NORTHERN KANSAS...

CITY           SKY/WX    TMP DP  RH WIND       PRES   REMARKS
GOODLAND       SUNNY     38  32  79 W7        30.05F WCI  33
HILL CITY      CLOUDY    31  27  85 W5        30.14F WCI  26
NORTON         CLOUDY    30  25  80 W6        30.11F WCI  24
PHILLIPSBURG   CLOUDY    34  28  80 SW3       30.15F
SMITH CENTER   PTSUNNY   28  25  86 W3        30.16F
BELOIT         CLOUDY    30  27  86 CALM      30.17F
HAYS           CLOUDY    32  21  64 CALM      30.14F
RUSSELL        CLOUDY    31  28  89 CALM      30.14F
CONCORDIA      PTSUNNY   30  26  85 CALM      30.17F
SALINA         CLOUDY    32  27  81 CALM      30.18F
TOPEKA         CLOUDY    34  30  85 CALM      30.20F FOG




U.S. Dept. of Commerce
NOAA National Weather Service
1325 East West Highway
Silver Spring, MD 20910
E-mail: w-nws.webmaster@noaa.gov
Page last modified: May 16, 2007
NATIONAL WEATHER SERVICE: for Safety, for Work, for Fun - FOR LIFE